Simultaneous Nadir Overpasses (SNOs) Predictions

Prediction of SNOs between METOP-A and NOAA-19 Satellite Orbit:

Table of predicted SNOs for the next 14.0 days since TLE Epoch: 5/21/2021
Index Date (METOP-A) Time (METOP-A) Lat,Lon (METOP-A) SZA (METOP-A ) Date (NOAA-19) Time (NOAA-19) Lat,Lon (NOAA-19) SZA (NOAA-19 ) Distance(km) Time Diff (sec)
1 05/22/2021 18:50:04 80.86, -92.99 60.43 05/22/2021 18:49:03 80.85, -93.02 60.41 1.06 61
2 05/22/2021 19:40:46 -80.84, 74.09 119.61 05/22/2021 19:39:59 -80.85, 73.98 119.61 2.06 47
3 05/22/2021 20:31:26 80.85,-118.48 60.40 05/22/2021 20:31:03 80.85,-118.38 60.40 1.70 23
4 05/22/2021 21:22:07 -80.86, 48.94 119.60 05/22/2021 21:21:58 -80.85, 48.98 119.61 0.72 9
5 05/22/2021 22:12:47 80.86,-143.62 60.41 05/22/2021 22:13:03 80.85,-143.75 60.39 2.52 16
6 05/22/2021 23:03:29 -80.85, 23.46 119.63 05/22/2021 23:03:58 -80.85, 23.61 119.61 2.87 29
7 05/22/2021 23:54:09 80.85,-169.10 60.38 05/22/2021 23:55:03 80.85,-169.11 60.39 0.12 54
8 05/23/2021 00:44:50 -80.86, -1.68 119.62 05/23/2021 00:45:58 -80.85, -1.75 119.62 1.35 68
9 06/02/2021 21:44:49 80.83,-137.35 58.61 06/02/2021 21:43:56 80.84,-137.39 58.61 1.04 53
10 06/02/2021 22:35:30 -80.84, 30.14 121.38 06/02/2021 22:34:50 -80.84, 30.27 121.38 2.22 40
11 06/02/2021 23:26:09 80.85,-162.50 58.62 06/02/2021 23:25:54 80.85,-162.39 58.62 1.95 15
12 06/03/2021 00:16:50 -80.86, 5.00 121.37 06/03/2021 00:16:49 -80.85, 4.90 121.39 2.21 1
13 06/03/2021 01:07:30 80.86, 172.36 58.63 06/03/2021 01:07:54 80.85, 172.24 58.62 2.50 24
14 06/03/2021 01:58:12 -80.85, -20.49 121.40 06/03/2021 01:58:49 -80.85, -20.47 121.39 0.29 37
15 06/03/2021 02:48:52 80.85, 146.87 58.61 06/03/2021 02:49:54 80.85, 146.87 58.61 0.15 62



Historial Predications of SNOs between METOP-A and NOAA-19
